Location: Baia de Cri?
(46.1667°N, 22.7167°E)
Time: 22:01:06
(UTC+00:00)

Cosmos 1140 Rocket - Pass Details

Date: 15 January 2026
Orbit: 739 x 763 km, 74.1° (Epoch: 10 February)

Event Time Altitude Azimuth Distance (km) Brightness Sun altitude
Rises 04:53:37 0° 210° (SSW) 3,161 6.6 -12.5°
Reaches altitude 10° 04:55:59 10° 214° (SW) 2,243 5.8 -12.2°
Maximum altitude 05:01:00 60° 295° (WNW) 849 3.4 -11.3°
Drops below altitude 10° 05:06:05 10° 15° (NNE) 2,268 5.9 -10.5°
Sets 05:08:29 0° 19° (NNE) 3,200 6.7 -10.1°
